STARLINK-4678, 53780

Orbit data source: Space-Track

STARLINK-4678, 53780 is a payload satellite owned by SpaceX/Seattle (US) in LEO that was launched on Sun, 11 Sep 2022 UTC via an FALCON 9 launch vehicle from the Air Force Eastern Test Range (AFETR). Payload-class satellites include a variety of spacecraft equipped with specific instruments for various scientific and technological missions. These include communications satellites like Starlink; space stations such as the ISS; scientific satellites like the Hubble; Earth observation satellites from companies like Planet Labs, Umbra, and HawkEye 360; GPS; miniature CubeSats for education and research; and military/defense satellites.

Loading next visibility...
Identifier
53780, 2022-111H
Orbit
LEO
Country
Flag of USUS
Related business
Manufacturer
SpaceX/Seattle
Mission
Operational Commercial Communications
Bus & Motor
STARLINK, Unknown motor
Mass
305 kg wet, ~290 kg dry
Launch date (UTC)
2022-09-11 (4 years ago)
Launch vehicle
FALCON 9
Launch site
Air Force Eastern Test Range (AFETR)
Object type
Payload
Rocket body
Debris
Shape & HBR
Box + 1 Pan, 10.1 m
Radar Cross Section
13.562 m², Large (>1 m²)

Expand to show TLE details & history
Last TLE update: 1 day ago

TLE from 1 day ago
0 STARLINK-4678
1 53780U 22111H   26263.19073689 -.00000659  00000-0 -83661-5 0  9993
2 53780  53.1608 115.1007 0001288  85.2255 274.8894 15.34391328223131
Epoch: 2026-09-20T04:34Z
TLE epoch observation values (Epoch: 2026-09-20T04:34:39.667Z)
Latitude
-0.00006°
Longitude
47.3469°
Altitude
463.555 km
Speed
7.636 km/s
True Right ascension
07h 40m 24s
True Declination
0° 00' 00"
Sunlit
Object was in daylight at epoch
Visualization orbit readout
Latitude
Unknown
Longitude
Unknown
Altitude
Unknown
Speed
Unknown
Apparent Right ascension
Unknown
Apparent Declination
Unknown
Sunlit
N/A
Visualization observer readout
Local Sidereal Time
21:06:47
Azimuth
Unknown
Elevation
Unknown
Doppler factor
Unknown
Orbital elements
Apogee altitude
463.867 km
Perigee altitude
462.105 km
Semi-major axis
6,841.123 km
Eccentricity
0.00013
Inclination
53.1608°
RAAN
115.1007°
Arg. of periapsis
85.2255°
True anomaly
274.87469°
Mean anomaly
274.8894°
Eccentric anomaly
274.88205°
Mean motion
3.83577 °/min
Orbital period
93.85 mins
BSTAR
-0.0000083661
Loading maneuver chart data...
Computing Atmospheric mass density...
Loading historical data...
Loading historical data...
Loading historical data...
Loading historical data...
Loading historical data...
Loading historical data...
Loading historical data...

Documentation

Showing up to 5 results
|